Weather in Agibalovo

Russia / Smolensk Oblast     55°24′40″N   33°30′50″E
temp.,
°C
wind,
m/s
gust,
m/s
humid.,
%
clouds,
%
prec.,
mm/h
press.,
hPa
HPBL,
m
14 april, wed
wed1400:00+12s3108162 0.0 1018315
03:00+11s258777 0.0 1017131
06:00+10s389188 0.1 1017268
09:00+12ssw458350 0.1 1017480
12:00+14ssw456769 0.4 10171036
15:00+16ssw4557100 0.9 10171474
18:00+15ssw2361100 0.1 1016556
21:00+11sw117871 0.1 101810
15 april, thu
thu1500:00+9n2286100 0.0 101828
03:00+8nne4798100 0.0 1018223
06:00+8nne5995100 0.3 1017422
09:00+8ne6994100 1.4 1018483
12:00+9ne71089100 0.0 1018641
15:00+10ne71084100 0.3 1018733
18:00+8ne81386100 0.1 1018570
21:00+7ne71489100 0.3 1019573
16 april, fri
fri1600:00+6ne81590100 0.0 1019596
03:00+6ne81390100 0.0 1019643
06:00+5ne71390100 0.0 1020629
09:00+5ne71388100 0.2 1020568
12:00+7ene81181100 0.0 1021714
15:00+10ene71175100 0.0 1021884
18:00+11ene71374100 0.0 10211009
21:00+9ne8157692 0.0 1021726
17 april, sat
sat1700:00+8ene7147998 0.1 1023644
03:00+7ene7138094 0.1 1024507
06:00+5ene61377100 0.0 1025432
09:00+6ene61372100 0.0 1027533
12:00+11ene81059100 0.0 1027914
15:00+12ene81049100 0.0 10271281
18:00+11ene6104534 0.0 10271217
21:00+7ene5135732 0.0 1028408
18 april, sun
sun1800:00+5ene513655 0.0 1029373
03:00+4ene512722 0.0 1029321
06:00+3ene513764 0.0 1029337
09:00+7e612580 0.0 1029655
12:00+11e78444 0.0 10291372
15:00+13e674013 0.0 10281740
18:00+12e464621 0.0 10281395
21:00+7e396513 0.0 1029154